[[{"header":{"parameterUnit":"m.s-1","parameterCategory":2,"la1":30.2991,"la2":30.254,"lo1":-89.0895,"lo2":-89.0444,"dy":0.0017,"dx":0.0017,"nx":28,"ny":28,"refTime":"2024-04-11T09:00:00:Z","depth":"0","parameterNumber":2,"parameterNumberName":"U-component_of_CURRENTS"},"data":[0,0,0,0,0,0,0,0,0,0,0,0,0,0,0,0,0,0,0,0,0,0,0,0,0,0,0,0,0,0,0,0,0,0,0,0,0,0,0,0,0,0,0,0,0,0,0,0,0,0,0,0,0,0,0,0,0,0,0.2346,0.2346,0,0.2359,0.2359,0.2359,0.2365,0.2365,0.2365,0.2365,0.238,0.238,0.2381,0,0,0,0,0,0,0,0,0,0,0,0,0,0.2339,0.2339,0.2346,0.2346,0.2346,0.2358,0.2359,0.2359,0.2365,0.2365,0.2365,0.2365,0.238,0.238,0.2381,0,0,0,0,0,0,0,0,0,0,0,0,0,0.2345,0.2339,0.2346,0.2351,0.2352,0.2358,0.2359,0.2359,0.2365,0.2365,0.2365,0.2365,0.238,0.238,0.2381,0.2382,0,0,0.2382,0.2383,0,0,0,0,0,0,0,0,0.2345,0.2346,0.235,0.2351,0.2352,0.2361,0.2362,0.2367,0.2365,0.2359,0.2365,0.2365,0.2374,0.2375,0.2376,0.2383,0.2384,0.2382,0.2383,0.2383,0.2383,0,0,0,0,0,0,0,0.2345,0.2345,0.235,0.2351,0.2351,0.2357,0.2358,0.2363,0.2366,0.236,0.236,0.2363,0.2374,0.2376,0.2377,0.2384,0.2382,0.2383,0.2383,0.2383,0.2419,0.2419,0,0,0,0,0,0,0.2344,0.2345,0.235,0.2351,0.2349,0.2357,0.2358,0.2357,0.2365,0.2367,0.2362,0.2363,0.2375,0.2376,0.2377,0.2408,0.2383,0.2383,0.2384,0.2418,0.2419,0.242,0,0,0,0,0,0,0.2343,0.2344,0.2349,0.2349,0.235,0.2357,0.2356,0.2357,0.236,0.2368,0.2369,0.2365,0.2375,0.2377,0.2387,0.2408,0.2384,0.2384,0.2417,0.2418,0.2419,0.2451,0,0,0,0,0,0,0.2343,0.2344,0.2344,0.2349,0.235,0.2358,0.2356,0.2358,0.2362,0.2363,0.237,0.2371,0.2375,0.2386,0.2387,0.2408,0.2385,0.2417,0.2418,0.2419,0.2449,0.2453,0.2456,0,0,0,0,0,0.2343,0.2346,0.2343,0.2344,0.2349,0.2358,0.236,0.2365,0.2362,0.2367,0.2372,0.2371,0.2395,0.2387,0.2388,0.2409,0.2416,0.2418,0.2419,0.2448,0.2453,0.2456,0,0,0,0,0,0,0.235,0.2347,0.2344,0.2348,0.2353,0.236,0.2364,0.2365,0.2372,0.2373,0.2375,0.2378,0.2398,0.2395,0.2386,0.2423,0.2407,0.2409,0.2428,0.2433,0.2436,0.2452,0.2385,0,0,0,0,0,0.2349,0.2345,0.2349,0.2352,0.2354,0.2357,0.2361,0.2366,0.2372,0.2375,0.2378,0.2386,0.2405,0.241,0.2421,0.2435,0.2451,0.2451,0.2454,0.2457,0.2471,0.2515,0.2524,0.2424,0.2424,0.2424,0,0,0.2352,0.235,0.2348,0.2352,0.2355,0.2367,0.236,0.2369,0.2384,0.2375,0.2391,0.2398,0.2411,0.2434,0.2443,0.2433,0.2491,0.2459,0.2461,0.2474,0.2518,0.2528,0.2536,0.2425,0.2425,0.2425,0,0,0.2359,0.2354,0.2355,0.2361,0.2368,0.2374,0.2377,0.2383,0.2389,0.2407,0.241,0.2427,0.2443,0.246,0.2472,0.2499,0.251,0.25,0.2531,0.2573,0.2582,0.259,0.2613,0.2623,0.25,0.25,0.25,0,0.2366,0.2365,0.2359,0.2368,0.2377,0.2378,0.2393,0.2403,0.2412,0.2428,0.2418,0.2461,0.2462,0.2508,0.2517,0.251,0.253,0.2514,0.2579,0.2588,0.2595,0.2617,0.2628,0.2502,0.2502,0.2502,0.2501,0,0.2376,0.2379,0.2382,0.2391,0.2403,0.2414,0.2429,0.2443,0.2451,0.2467,0.2506,0.2511,0.2542,0.2542,0.2539,0.2595,0.2589,0.2581,0.2571,0.2608,0.2628,0.2639,0.2504,0.2504,0.2503,0.2503,0,0,0.2387,0.2388,0.239,0.2397,0.2416,0.2427,0.2459,0.2492,0.2524,0.2536,0.2585,0.2604,0.261,0.2623,0.262,0.2649,0.2709,0.2639,0.2641,0.2666,0.2798,0.2848,0.2863,0.2717,0.2719,0.2721,0.2787,0,0.2399,0.241,0.2414,0.2438,0.2448,0.2467,0.2498,0.2531,0.2562,0.2609,0.263,0.2671,0.264,0.266,0.2688,0.2716,0.274,0.2691,0.2756,0.2757,0.2801,0.2879,0.2948,0.3019,0.2797,0.2799,0.28,0,0.2412,0.2417,0.2433,0.246,0.2468,0.2489,0.2547,0.2576,0.2645,0.2673,0.2721,0.2741,0.2794,0.2758,0.2827,0.28,0.2803,0.2811,0.2814,0.2862,0.2828,0.2948,0.3046,0.3022,0.2816,0.2815,0.2814,0,0.2416,0.2435,0.2446,0.2454,0.2486,0.2508,0.2535,0.2597,0.2642,0.272,0.2773,0.2825,0.2874,0.2894,0.292,0.2879,0.3001,0.2943,0.2983,0.2985,0.3059,0.3065,0.3151,0.2989,0.2988,0.2988,0.2988,0,0.2427,0.2438,0.2447,0.2453,0.2488,0.2511,0.2571,0.2609,0.269,0.2763,0.2804,0.2885,0.2915,0.2986,0.2972,0.3043,0.3047,0.302,0.3025,0.307,0.3076,0.3068,0.3004,0.2991,0.299,0.299,0.2989,0,0.2427,0.2431,0.2446,0.2472,0.2487,0.2512,0.2587,0.2635,0.2709,0.2812,0.2844,0.2959,0.3064,0.3095,0.3154,0.3132,0.3098,0.318,0.3227,0.3238,0.3231,0.3164,0.2869,0.2835,0.323,0.3232,0.3234,0,0.2427,0.243,0.2452,0.2466,0.2477,0.2522,0.2562,0.2636,0.2699,0.2862,0.2919,0.3061,0.3171,0.3298,0.3329,0.3358,0.3177,0.339,0.332,0.3279,0.3208,0.282,0.2785,0.3417,0.342,0.3422,0.3424,0,0.2424,0.2426,0.2431,0.2461,0.2492,0.254,0.2605,0.2663,0.277,0.2874,0.3035,0.314,0.3315,0.3437,0.3499,0.3496,0.3259,0.3439,0.3402,0.3383,0.2961,0.2918,0.3296,0.3446,0.3444,0.3442,0.3441,0.344,0.2417,0.2417,0.2424,0.2456,0.2493,0.2553,0.2593,0.2689,0.2804,0.2959,0.3072,0.3236,0.3489,0.3622,0.3578,0.3632,0.3376,0.359,0.3517,0.3124,0.3076,0.3497,0.3647,0.3646,0.3646,0.3645,0.3644,0,0.2406,0.2407,0.2426,0.246,0.2497,0.2529,0.2617,0.2669,0.2798,0.2966,0.3105,0.338,0.3566,0.3683,0.3818,0.3737,0.3454,0.3671,0.3208,0.3185,0.3642,0.3652,0.3807,0.3807,0.3807,0.3807,0.3807,0.3807,0.2397,0.2397,0.2407,0.2454,0.2486,0.2514,0.2558,0.2648,0.2765,0.2955,0.3096,0.3197,0.344,0.367,0.3722,0.3696,0.3378,0.3221,0.3106,0.3567,0.3553,0.3539,0.3538,0.3667,0.3666,0.2568,0.2561,0.2555]},{"header":{"parameterUnit":"m.s-1","parameterCategory":2,"la1":30.2991,"la2":30.254,"lo1":-89.0895,"lo2":-89.0444,"dy":0.0017,"dx":0.0017,"nx":28,"ny":28,"refTime":"2024-04-11T09:00:00:Z","depth":"0","parameterNumber":3,"parameterNumberName":"V-component_of_CURRENTS"},"data":[0,0,0,0,0,0,0,0,0,0,0,0,0,0,0,0,0,0,0,0,0,0,0,0,0,0,0,0,0,0,0,0,0,0,0,0,0,0,0,0,0,0,0,0,0,0,0,0,0,0,0,0,0,0,0,0,0,0,0.0358,0.0358,0,0.0348,0.0348,0.0348,0.0331,0.0331,0.0331,0.0331,0.0293,0.0292,0.0292,0,0,0,0,0,0,0,0,0,0,0,0,0,0.032,0.0321,0.0359,0.0358,0.0358,0.0348,0.0348,0.0348,0.0331,0.0331,0.0331,0.033,0.0293,0.0293,0.0292,0,0,0,0,0,0,0,0,0,0,0,0,0,0.0325,0.0321,0.0359,0.035,0.0349,0.0348,0.0348,0.0348,0.0331,0.0331,0.0331,0.033,0.0294,0.0293,0.0291,0.029,0,0,0.0288,0.0287,0,0,0,0,0,0,0,0,0.0325,0.0326,0.0351,0.035,0.0349,0.0341,0.0321,0.0327,0.0331,0.0337,0.0331,0.033,0.0308,0.0305,0.0303,0.0288,0.0287,0.0288,0.0287,0.0286,0.0286,0,0,0,0,0,0,0,0.0325,0.0327,0.0353,0.0351,0.035,0.0331,0.0332,0.0322,0.0323,0.0336,0.0335,0.0336,0.0307,0.0304,0.0302,0.0286,0.0288,0.0287,0.0286,0.0285,0.0267,0.0267,0,0,0,0,0,0,0.0331,0.0327,0.0354,0.0353,0.0337,0.0332,0.0333,0.0344,0.0324,0.0321,0.0336,0.0335,0.0306,0.0303,0.0301,0.0308,0.0286,0.0285,0.0285,0.0266,0.0267,0.0267,0,0,0,0,0,0,0.033,0.0334,0.0354,0.034,0.0341,0.0334,0.0345,0.0344,0.0343,0.0324,0.032,0.0338,0.0306,0.0302,0.0297,0.0306,0.0285,0.0284,0.0266,0.0267,0.0267,0.0317,0,0,0,0,0,0,0.0329,0.0334,0.0341,0.0341,0.0342,0.036,0.0346,0.0344,0.0344,0.0342,0.0324,0.032,0.0306,0.0299,0.0295,0.0304,0.0283,0.0266,0.0266,0.0267,0.0315,0.0319,0.0322,0,0,0,0,0,0.0328,0.0342,0.0342,0.0345,0.0353,0.036,0.0359,0.0352,0.0344,0.0349,0.0336,0.0321,0.0299,0.0298,0.0294,0.0303,0.0266,0.0266,0.0267,0.0313,0.0318,0.0322,0,0,0,0,0,0,0.0326,0.0342,0.0341,0.0358,0.0361,0.0358,0.036,0.0355,0.0349,0.0346,0.0326,0.0322,0.0319,0.0303,0.0303,0.0297,0.0279,0.0278,0.0315,0.0319,0.0323,0.0335,0.0282,0,0,0,0,0,0.0331,0.0348,0.0354,0.0367,0.037,0.0365,0.0366,0.0363,0.0358,0.0355,0.0342,0.0327,0.0318,0.0313,0.0301,0.03,0.0279,0.0301,0.0305,0.0308,0.0315,0.0291,0.0293,0.0269,0.0269,0.0269,0,0,0.0332,0.0344,0.0352,0.0368,0.0368,0.0383,0.0365,0.0372,0.0384,0.0352,0.036,0.034,0.032,0.032,0.0317,0.0309,0.0303,0.0309,0.0312,0.0317,0.0291,0.0294,0.0296,0.0269,0.0269,0.0269,0,0,0.0349,0.0356,0.0376,0.0384,0.0393,0.0394,0.0399,0.0399,0.0398,0.0403,0.0382,0.0368,0.0357,0.0343,0.0335,0.035,0.0323,0.0346,0.0377,0.0353,0.0355,0.0357,0.0331,0.033,0.0349,0.0349,0.0349,0,0.0348,0.0381,0.038,0.0403,0.0416,0.0403,0.0428,0.0426,0.0424,0.0429,0.0412,0.0393,0.0368,0.0371,0.0373,0.0359,0.0342,0.0364,0.0359,0.036,0.036,0.0333,0.0331,0.0352,0.0351,0.0351,0.0351,0,0.0383,0.0408,0.042,0.045,0.046,0.0479,0.0482,0.0488,0.0483,0.048,0.0479,0.0444,0.0433,0.042,0.0401,0.0397,0.0382,0.0366,0.035,0.0366,0.0336,0.0333,0.0355,0.0354,0.0354,0.0353,0,0,0.0392,0.0438,0.0443,0.0471,0.049,0.0507,0.0526,0.0546,0.0567,0.0545,0.0567,0.0529,0.0505,0.0493,0.0462,0.0438,0.0417,0.0408,0.0406,0.0388,0.0367,0.0372,0.0369,0.0404,0.0403,0.0403,0.0344,0,0.0423,0.0482,0.0493,0.0546,0.0578,0.0578,0.0603,0.0615,0.0616,0.063,0.0589,0.0594,0.0536,0.0534,0.0497,0.0446,0.0412,0.0435,0.035,0.0347,0.0355,0.0367,0.0495,0.0455,0.0341,0.034,0.034,0,0.0458,0.0497,0.0557,0.0613,0.0626,0.0652,0.0697,0.0719,0.0726,0.0726,0.0709,0.0681,0.0645,0.0593,0.05,0.052,0.0445,0.0395,0.0391,0.0378,0.0348,0.042,0.0453,0.0353,0.0335,0.0335,0.0336,0,0.0482,0.0544,0.0598,0.0616,0.0671,0.0698,0.0726,0.0748,0.0785,0.079,0.0818,0.0756,0.0749,0.0645,0.0531,0.0518,0.043,0.0396,0.0326,0.0325,0.0408,0.0415,0.0342,0.0321,0.0321,0.0322,0.0322,0,0.0519,0.0562,0.0616,0.0649,0.0719,0.0738,0.081,0.0825,0.0864,0.0937,0.0871,0.0918,0.0764,0.0698,0.0566,0.0446,0.045,0.0336,0.0314,0.0428,0.0437,0.0332,0.0313,0.0319,0.032,0.032,0.0321,0,0.054,0.0574,0.0643,0.0709,0.0736,0.0787,0.0877,0.0933,0.0958,0.1051,0.1063,0.104,0.0973,0.0804,0.0649,0.0515,0.0375,0.0333,0.0475,0.047,0.0308,0.029,0.0258,0.0232,0.025,0.0249,0.0249,0,0.0556,0.0594,0.0687,0.0739,0.0773,0.0855,0.0921,0.0973,0.105,0.1151,0.1211,0.1175,0.1201,0.0961,0.0732,0.0504,0.0406,0.0431,0.0419,0.0321,0.0283,0.028,0.026,0.0546,0.0549,0.055,0.0552,0,0.0586,0.0619,0.0678,0.0787,0.0867,0.0969,0.1073,0.1159,0.1254,0.1369,0.1524,0.1559,0.1356,0.1238,0.0887,0.07,0.0455,0.0461,0.0337,0.0496,0.0516,0.0474,0.0545,0.0569,0.0567,0.0566,0.0565,0.0564,0.0605,0.0654,0.0738,0.0842,0.0943,0.109,0.1219,0.137,0.1556,0.181,0.1794,0.1998,0.1767,0.1345,0.0979,0.0563,0.0568,0.0482,0.0462,0.0458,0.0462,0.056,0.0567,0.0565,0.0564,0.0563,0.0562,0,0.0631,0.0695,0.0792,0.0932,0.1057,0.111,0.133,0.1523,0.1815,0.2098,0.2292,0.2494,0.2108,0.1663,0.1104,0.0699,0.0526,0.0485,0.0518,0.0486,0.0558,0.0597,0.0641,0.0641,0.0641,0.0641,0.0641,0.0641,0.0649,0.0741,0.08,0.1004,0.1117,0.135,0.1509,0.1837,0.2131,0.2676,0.302,0.3178,0.31,0.1862,0.1043,0.0756,0.0511,0.0473,0.0301,0.0355,0.0353,0.035,0.0375,0.0373,0.0373,0.0295,0.0294,0.0293]}],[{"header":{"parameterUnit":"m.s-1","parameterCategory":2,"la1":30.2991,"la2":30.254,"lo1":-89.0895,"lo2":-89.0444,"dy":0.0017,"dx":0.0017,"nx":28,"ny":28,"refTime":"2024-04-11T09:00:00:Z","depth":"2","parameterNumber":2,"parameterNumberName":"U-component_of_CURRENTS"},"data":[0,0,0,0,0,0,0,0,0,0,0,0,0,0,0,0,0,0,0,0,0,0,0,0,0,0,0,0,0,0,0,0,0,0,0,0,0,0,0,0,0,0,0,0,0,0,0,0,0,0,0,0,0,0,0,0,0,0,0.2278,0.2278,0,0.229,0.229,0.229,0.2297,0.2297,0.2297,0.2297,0.2313,0.2313,0.2313,0,0,0,0,0,0,0,0,0,0,0,0,0,0.2272,0.2272,0.2278,0.2278,0.2278,0.229,0.229,0.229,0.2297,0.2297,0.2297,0.2297,0.2313,0.2313,0.2314,0,0,0,0,0,0,0,0,0,0,0,0,0,0.2277,0.2272,0.2278,0.2284,0.2284,0.229,0.229,0.229,0.2297,0.2297,0.2297,0.2297,0.2313,0.2313,0.2314,0.2314,0,0,0.2315,0.2315,0,0,0,0,0,0,0,0,0.2277,0.2277,0.2283,0.2283,0.2284,0.2293,0.2294,0.2299,0.2297,0.2291,0.2297,0.2297,0.2307,0.2308,0.2309,0.2315,0.2315,0.2315,0.2315,0.2316,0.2316,0,0,0,0,0,0,0,0.2277,0.2277,0.2282,0.2283,0.2284,0.2289,0.229,0.2295,0.2298,0.2292,0.2293,0.2295,0.2307,0.2308,0.2309,0.2316,0.2315,0.2316,0.2316,0.2316,0.2351,0.2351,0,0,0,0,0,0,0.2276,0.2277,0.2282,0.2282,0.2282,0.2289,0.229,0.2289,0.2298,0.2299,0.2295,0.2295,0.2307,0.2308,0.231,0.2341,0.2316,0.2316,0.2316,0.235,0.2351,0.2352,0,0,0,0,0,0,0.2276,0.2276,0.2281,0.2281,0.2282,0.2289,0.2288,0.2289,0.2293,0.23,0.2302,0.2298,0.2307,0.2309,0.2319,0.2341,0.2316,0.2317,0.235,0.2351,0.2351,0.2384,0,0,0,0,0,0,0.2275,0.2276,0.2276,0.228,0.2282,0.229,0.2288,0.229,0.2295,0.2296,0.2303,0.2305,0.2308,0.2319,0.232,0.2341,0.2317,0.2349,0.235,0.2351,0.2382,0.2386,0.239,0,0,0,0,0,0.2275,0.2278,0.2276,0.2277,0.2282,0.229,0.2291,0.2297,0.2295,0.23,0.2305,0.2304,0.2327,0.2319,0.2321,0.2342,0.2348,0.235,0.2351,0.2381,0.2385,0.2389,0,0,0,0,0,0,0.2283,0.2279,0.2277,0.2281,0.2286,0.2292,0.2297,0.2298,0.2305,0.2306,0.2308,0.2311,0.2331,0.2328,0.2319,0.2356,0.2339,0.2341,0.2362,0.2366,0.2369,0.2385,0.2318,0,0,0,0,0,0.2282,0.2279,0.2282,0.2285,0.2287,0.229,0.2294,0.2299,0.2305,0.2308,0.2311,0.232,0.2338,0.2343,0.2354,0.2368,0.2383,0.2383,0.2387,0.239,0.2403,0.2447,0.2457,0.2356,0.2356,0.2356,0,0,0.2285,0.2284,0.2282,0.2286,0.2288,0.23,0.2293,0.2302,0.2317,0.2309,0.2325,0.2332,0.2344,0.2367,0.2375,0.2366,0.2424,0.2392,0.2394,0.2406,0.245,0.246,0.2469,0.2357,0.2357,0.2357,0,0,0.2293,0.2289,0.229,0.2295,0.2302,0.2308,0.2311,0.2317,0.2324,0.2341,0.2344,0.2362,0.2377,0.2394,0.2405,0.2432,0.2443,0.2434,0.2464,0.2506,0.2515,0.2524,0.2547,0.2557,0.2434,0.2434,0.2434,0,0.2301,0.23,0.2294,0.2302,0.2311,0.2313,0.2327,0.2337,0.2346,0.2362,0.2353,0.2395,0.2396,0.244,0.245,0.2443,0.2463,0.2447,0.2513,0.2521,0.2529,0.2551,0.2561,0.2436,0.2435,0.2435,0.2435,0,0.231,0.2314,0.2317,0.2326,0.2337,0.2348,0.2363,0.2377,0.2386,0.2401,0.244,0.2445,0.2475,0.2476,0.2473,0.2528,0.2522,0.2514,0.2504,0.2541,0.2561,0.2572,0.2438,0.2438,0.2437,0.2437,0,0,0.2323,0.2323,0.2325,0.2332,0.235,0.2361,0.2392,0.2425,0.2457,0.2469,0.2518,0.2536,0.2543,0.2556,0.2553,0.2582,0.2642,0.2573,0.2574,0.26,0.2732,0.2778,0.2794,0.2651,0.2653,0.2655,0.272,0,0.2335,0.2346,0.2349,0.2372,0.2382,0.24,0.2431,0.2463,0.2494,0.2541,0.2562,0.2603,0.2573,0.2593,0.2621,0.2649,0.2673,0.2625,0.2689,0.269,0.2732,0.281,0.2516,0.2556,0.273,0.2732,0.2733,0,0.2348,0.2352,0.2369,0.2394,0.2402,0.2422,0.2479,0.2508,0.2576,0.2605,0.2653,0.2673,0.2725,0.269,0.2759,0.2733,0.2737,0.2745,0.2747,0.2792,0.2759,0.2548,0.2568,0.2751,0.275,0.2748,0.2747,0,0.2353,0.2371,0.2381,0.2389,0.2419,0.2442,0.2468,0.253,0.2573,0.2652,0.2704,0.2756,0.2805,0.2825,0.2852,0.2812,0.2933,0.2875,0.2914,0.2915,0.268,0.266,0.2921,0.2921,0.292,0.292,0.292,0,0.2364,0.2375,0.2383,0.2389,0.2424,0.2446,0.2505,0.2542,0.2622,0.2694,0.2736,0.2815,0.2847,0.2917,0.2904,0.2973,0.2978,0.2949,0.2955,0.2684,0.2664,0.284,0.283,0.2923,0.2922,0.2922,0.2921,0,0.2365,0.2369,0.2383,0.2408,0.2423,0.2448,0.2521,0.2569,0.2642,0.2744,0.2776,0.2888,0.2993,0.3025,0.3083,0.3061,0.3098,0.3107,0.2793,0.2763,0.3025,0.3015,0.3151,0.3153,0.3156,0.3157,0.3159,0,0.2365,0.2368,0.2389,0.2403,0.2414,0.246,0.2499,0.2572,0.2633,0.2793,0.2848,0.2989,0.3084,0.3209,0.315,0.3154,0.3202,0.2937,0.2818,0.3067,0.3058,0.3045,0.3032,0.2489,0.2484,0.2481,0.2479,0,0.2363,0.2365,0.237,0.24,0.2432,0.2479,0.2542,0.2599,0.2704,0.2784,0.294,0.3031,0.3129,0.3037,0.3064,0.301,0.2916,0.2879,0.3216,0.2517,0.246,0.2446,0.2451,0.2449,0.2452,0.2454,0.2456,0.2457,0.2357,0.2357,0.2364,0.2396,0.2434,0.2494,0.2534,0.2522,0.2602,0.262,0.2868,0.2853,0.2897,0.2779,0.2703,0.2615,0.2826,0.2687,0.2688,0.2695,0.2648,0.2604,0.2607,0.2611,0.2614,0.2617,0.262,0,0.2312,0.2347,0.2367,0.2402,0.2369,0.2473,0.256,0.2434,0.2396,0.2435,0.248,0.2326,0.2305,0.2341,0.2155,0.2195,0.2038,0.2121,0.1889,0.1925,0.1955,0.186,0.1615,0.1611,0.1608,0.1605,0,0,0.2294,0.2274,0.2283,0.2275,0.2345,0.2257,0.2299,0.2136,0.2045,0.1876,0.1873,0.2052,0.2249,0.1866,0.1854,0.1712,0.1765,0.1614,0.2428,0.2187,0.2211,0.231,0.2212,0,0,0,0,0]},{"header":{"parameterUnit":"m.s-1","parameterCategory":2,"la1":30.2991,"la2":30.254,"lo1":-89.0895,"lo2":-89.0444,"dy":0.0017,"dx":0.0017,"nx":28,"ny":28,"refTime":"2024-04-11T09:00:00:Z","depth":"2","parameterNumber":3,"parameterNumberName":"V-component_of_CURRENTS"},"data":[0,0,0,0,0,0,0,0,0,0,0,0,0,0,0,0,0,0,0,0,0,0,0,0,0,0,0,0,0,0,0,0,0,0,0,0,0,0,0,0,0,0,0,0,0,0,0,0,0,0,0,0,0,0,0,0,0,0,0.036,0.036,0,0.035,0.0349,0.0349,0.0332,0.0332,0.0332,0.0332,0.0294,0.0293,0.0293,0,0,0,0,0,0,0,0,0,0,0,0,0,0.0322,0.0323,0.036,0.036,0.036,0.035,0.0349,0.0349,0.0332,0.0332,0.0332,0.0332,0.0294,0.0294,0.0293,0,0,0,0,0,0,0,0,0,0,0,0,0,0.0327,0.0324,0.036,0.0351,0.035,0.035,0.0349,0.0349,0.0333,0.0332,0.0332,0.0332,0.0295,0.0294,0.0292,0.0292,0,0,0.0289,0.0288,0,0,0,0,0,0,0,0,0.0327,0.0329,0.0353,0.0352,0.0351,0.0343,0.0322,0.0329,0.0333,0.0338,0.0332,0.0331,0.0309,0.0307,0.0304,0.029,0.0288,0.0289,0.0288,0.0287,0.0287,0,0,0,0,0,0,0,0.0327,0.0329,0.0355,0.0353,0.0352,0.0333,0.0334,0.0323,0.0324,0.0338,0.0337,0.0337,0.0308,0.0305,0.0303,0.0288,0.0289,0.0288,0.0287,0.0286,0.0269,0.0269,0,0,0,0,0,0,0.0333,0.0329,0.0355,0.0355,0.0339,0.0334,0.0335,0.0345,0.0325,0.0322,0.0338,0.0337,0.0308,0.0305,0.0302,0.031,0.0287,0.0286,0.0286,0.0268,0.0269,0.0269,0,0,0,0,0,0,0.0332,0.0336,0.0356,0.0341,0.0343,0.0336,0.0347,0.0345,0.0344,0.0325,0.0322,0.0339,0.0307,0.0303,0.0298,0.0308,0.0286,0.0285,0.0268,0.0268,0.0269,0.0319,0,0,0,0,0,0,0.0332,0.0336,0.0343,0.0342,0.0344,0.0361,0.0347,0.0345,0.0345,0.0344,0.0325,0.0321,0.0307,0.03,0.0297,0.0305,0.0284,0.0268,0.0268,0.0269,0.0317,0.0321,0.0324,0,0,0,0,0,0.033,0.0344,0.0344,0.0347,0.0355,0.0362,0.0361,0.0353,0.0346,0.035,0.0337,0.0322,0.03,0.0299,0.0296,0.0304,0.0267,0.0268,0.0269,0.0315,0.032,0.0324,0,0,0,0,0,0,0.0329,0.0344,0.0343,0.036,0.0363,0.036,0.0362,0.0357,0.035,0.0348,0.0327,0.0323,0.0321,0.0305,0.0304,0.0299,0.028,0.028,0.0317,0.0321,0.0325,0.0337,0.0283,0,0,0,0,0,0.0333,0.035,0.0356,0.0369,0.0372,0.0367,0.0368,0.0365,0.036,0.0357,0.0344,0.0329,0.032,0.0315,0.0303,0.0302,0.0281,0.0304,0.0307,0.0311,0.0317,0.0293,0.0295,0.0271,0.0271,0.0271,0,0,0.0334,0.0346,0.0354,0.037,0.037,0.0385,0.0367,0.0373,0.0386,0.0354,0.0361,0.0342,0.0322,0.0322,0.0319,0.0311,0.0306,0.0311,0.0315,0.0319,0.0294,0.0296,0.0298,0.0271,0.0271,0.0271,0,0,0.0351,0.0358,0.0378,0.0386,0.0395,0.0396,0.04,0.04,0.04,0.0405,0.0384,0.037,0.0359,0.0346,0.0338,0.0353,0.0325,0.0349,0.038,0.0357,0.0359,0.036,0.0334,0.0333,0.0352,0.0352,0.0352,0,0.0351,0.0384,0.0383,0.0405,0.0418,0.0405,0.0429,0.0428,0.0426,0.0431,0.0414,0.0396,0.0371,0.0374,0.0376,0.0362,0.0345,0.0367,0.0362,0.0363,0.0364,0.0337,0.0335,0.0355,0.0354,0.0354,0.0354,0,0.0385,0.041,0.0422,0.0452,0.0462,0.048,0.0484,0.049,0.0484,0.0482,0.0481,0.0447,0.0436,0.0423,0.0404,0.0401,0.0386,0.037,0.0354,0.037,0.034,0.0337,0.0358,0.0357,0.0357,0.0356,0,0,0.0394,0.0439,0.0445,0.0473,0.0492,0.0509,0.0528,0.0548,0.0569,0.0547,0.0569,0.0533,0.0508,0.0497,0.0466,0.0442,0.0421,0.0412,0.041,0.0391,0.0371,0.0375,0.0372,0.0408,0.0408,0.0407,0.0347,0,0.0424,0.0483,0.0494,0.0547,0.0579,0.0579,0.0605,0.0617,0.0618,0.0632,0.0592,0.0597,0.0539,0.0538,0.0501,0.045,0.0416,0.0439,0.0354,0.0351,0.0357,0.037,0.0384,0.0334,0.0344,0.0344,0.0343,0,0.0459,0.0498,0.0557,0.0614,0.0627,0.0653,0.0698,0.072,0.0728,0.0727,0.0712,0.0683,0.0648,0.0597,0.0504,0.0524,0.0449,0.0398,0.0395,0.0381,0.035,0.0319,0.0327,0.0338,0.0338,0.0339,0.0339,0,0.0483,0.0544,0.0598,0.0616,0.0671,0.0698,0.0727,0.0749,0.0787,0.0792,0.0819,0.0758,0.0751,0.0647,0.0534,0.0522,0.0433,0.04,0.0328,0.0327,0.0314,0.0313,0.0325,0.0325,0.0326,0.0326,0.0326,0,0.052,0.0563,0.0616,0.0649,0.0719,0.0738,0.0811,0.0826,0.0865,0.0938,0.0872,0.0919,0.0766,0.07,0.0568,0.0449,0.0452,0.0339,0.0316,0.0332,0.0333,0.0316,0.0316,0.0323,0.0324,0.0324,0.0325,0,0.054,0.0574,0.0643,0.0709,0.0736,0.0787,0.0877,0.0933,0.0958,0.1051,0.1063,0.1039,0.0971,0.0804,0.065,0.0517,0.0385,0.0334,0.0362,0.0345,0.0282,0.0284,0.025,0.025,0.025,0.025,0.025,0,0.0556,0.0594,0.0687,0.0738,0.0773,0.0854,0.0921,0.0973,0.105,0.115,0.1209,0.1172,0.1193,0.0952,0.0703,0.0469,0.0418,0.0312,0.0286,0.0295,0.0276,0.0279,0.0282,0.0279,0.0279,0.0279,0.0279,0,0.0586,0.0618,0.0678,0.0786,0.0866,0.0969,0.1073,0.1158,0.1253,0.1359,0.1511,0.154,0.1319,0.1111,0.0751,0.0575,0.0348,0.0308,0.0312,0.0306,0.0319,0.0302,0.0304,0.028,0.028,0.028,0.028,0.028,0.0604,0.0653,0.0737,0.0841,0.0942,0.109,0.1219,0.1338,0.1511,0.1688,0.1717,0.1768,0.1476,0.1054,0.0726,0.0366,0.0405,0.0264,0.0264,0.0264,0.0288,0.0302,0.0263,0.0263,0.0263,0.0263,0.0263,0,0.063,0.0695,0.0791,0.0931,0.1059,0.1109,0.1329,0.1476,0.1716,0.1833,0.197,0.1742,0.1458,0.1101,0.0603,0.0308,0.0248,0.0176,0.018,0.0184,0.0186,0.0205,0.0157,0.0156,0.0154,0.0153,0,0,0.0648,0.074,0.0799,0.1007,0.112,0.1345,0.1504,0.1719,0.1869,0.2031,0.2057,0.1995,0.1598,0.1198,0.0779,0.0486,0.039,0.0397,0.0521,0.0582,0.0587,0.0283,0.0323,0,0,0,0,0]}],[{"header":{"parameterUnit":"m.s-1","parameterCategory":2,"la1":30.2991,"la2":30.254,"lo1":-89.0895,"lo2":-89.0444,"dy":0.0017,"dx":0.0017,"nx":28,"ny":28,"refTime":"2024-04-11T09:00:00:Z","depth":"4","parameterNumber":2,"parameterNumberName":"U-component_of_CURRENTS"},"data":[0,0,0,0,0,0,0,0,0,0,0,0,0,0,0,0,0,0,0,0,0,0,0,0,0,0,0,0,0,0,0,0,0,0,0,0,0,0,0,0,0,0,0,0,0,0,0,0,0,0,0,0,0,0,0,0,0,0,0.1115,0.1116,0,0.1147,0.1148,0.1148,0.1184,0.1185,0.1185,0.1186,0.1241,0.1242,0.1243,0,0,0,0,0,0,0,0,0,0,0,0,0,0.1074,0.1074,0.1115,0.1116,0.1116,0.1147,0.1148,0.1148,0.1184,0.1185,0.1185,0.1186,0.1241,0.1242,0.1243,0,0,0,0,0,0,0,0,0,0,0,0,0,0.1097,0.1074,0.1115,0.1138,0.1141,0.1147,0.1148,0.1148,0.1184,0.1185,0.1186,0.1186,0.1241,0.1242,0.1243,0.1234,0,0,0.1248,0.1248,0,0,0,0,0,0,0,0,0.1095,0.1098,0.1135,0.1137,0.114,0.1164,0.1154,0.1178,0.1184,0.1167,0.1186,0.1187,0.1217,0.1221,0.1223,0.1236,0.1238,0.1248,0.1249,0.1249,0.125,0,0,0,0,0,0,0,0.1094,0.1097,0.1127,0.1135,0.1138,0.1144,0.1148,0.1158,0.1186,0.1168,0.1171,0.1176,0.1219,0.1222,0.1225,0.1239,0.1248,0.1249,0.125,0.125,0.1337,0.1338,0,0,0,0,0,0,0.1091,0.1095,0.1126,0.1128,0.112,0.1144,0.1149,0.1154,0.1186,0.1191,0.1175,0.1177,0.1219,0.1223,0.1227,0.13,0.1249,0.125,0.1251,0.1335,0.1337,0.1339,0,0,0,0,0,0,0.109,0.1093,0.1125,0.1113,0.1118,0.1144,0.115,0.1154,0.1183,0.1191,0.1197,0.1202,0.122,0.1225,0.1263,0.1299,0.1251,0.1252,0.1334,0.1336,0.1338,0.1393,0,0,0,0,0,0,0.1089,0.1093,0.1109,0.1113,0.1118,0.1145,0.1149,0.1154,0.1184,0.1188,0.1216,0.122,0.1221,0.1261,0.1264,0.13,0.1253,0.1332,0.1335,0.1337,0.1389,0.1397,0.1403,0,0,0,0,0,0.1087,0.1101,0.111,0.1114,0.1135,0.1146,0.115,0.117,0.1184,0.12,0.1224,0.1221,0.1281,0.1263,0.1267,0.1304,0.133,0.1334,0.1337,0.1386,0.1395,0.1403,0,0,0,0,0,0,0.1094,0.1106,0.1116,0.1135,0.1148,0.1153,0.1173,0.1184,0.1213,0.1228,0.1235,0.1241,0.1289,0.1287,0.1267,0.1338,0.1307,0.1311,0.1343,0.1352,0.1359,0.1362,0.1254,0,0,0,0,0,0.1102,0.1118,0.1126,0.1145,0.1154,0.1168,0.1181,0.1194,0.1214,0.1229,0.1248,0.1274,0.13,0.1319,0.1336,0.1371,0.1378,0.1399,0.1406,0.1412,0.1418,0.1465,0.1477,0.135,0.135,0.135,0,0,0.111,0.112,0.1131,0.1149,0.1162,0.1179,0.1179,0.1206,0.1231,0.123,0.128,0.1298,0.1314,0.1357,0.1379,0.1365,0.1452,0.1416,0.1421,0.1424,0.147,0.1482,0.1493,0.1352,0.1352,0.1351,0,0,0.1125,0.1145,0.116,0.1174,0.1198,0.1206,0.1219,0.124,0.1264,0.1306,0.1317,0.1357,0.1394,0.1413,0.1427,0.1482,0.1485,0.1495,0.1536,0.1583,0.1594,0.1603,0.1624,0.1635,0.1501,0.1501,0.1501,0,0.114,0.1156,0.1168,0.1185,0.1202,0.1221,0.1242,0.1266,0.13,0.1327,0.1334,0.1409,0.1421,0.1475,0.1499,0.1499,0.152,0.1502,0.1592,0.1602,0.1611,0.163,0.1641,0.1504,0.1504,0.1503,0.1503,0,0.1156,0.118,0.1192,0.122,0.1241,0.1263,0.129,0.1325,0.136,0.1385,0.1455,0.1477,0.1524,0.1538,0.1538,0.1611,0.1603,0.1594,0.157,0.1627,0.1643,0.1654,0.1508,0.1507,0.1506,0.1506,0,0,0.1158,0.1196,0.1204,0.1221,0.1263,0.1276,0.1328,0.1373,0.1417,0.1466,0.153,0.1578,0.1602,0.1619,0.1629,0.167,0.1748,0.1668,0.1669,0.1686,0.1846,0.1739,0.1741,0.1765,0.1767,0.1769,0.183,0,0.117,0.1202,0.1223,0.1263,0.128,0.1318,0.1362,0.1412,0.1464,0.1531,0.1579,0.1644,0.163,0.167,0.1709,0.175,0.1781,0.1731,0.179,0.1791,0.1688,0.1751,0.1776,0.1838,0.1841,0.1842,0.1844,0,0.1175,0.1197,0.1235,0.1282,0.1296,0.133,0.1405,0.1448,0.1541,0.159,0.1663,0.1706,0.1787,0.1765,0.1855,0.1832,0.1843,0.1859,0.1862,0.175,0.1705,0.1771,0.1863,0.1862,0.186,0.1859,0.1858,0,0.1155,0.1203,0.1234,0.125,0.1309,0.1347,0.139,0.1474,0.1523,0.1642,0.1706,0.179,0.1863,0.1899,0.1944,0.1916,0.2035,0.1993,0.1897,0.1889,0.1941,0.193,0.2043,0.2043,0.2043,0.2042,0.2042,0,0.1143,0.1171,0.1231,0.1246,0.1291,0.1346,0.1411,0.1471,0.1574,0.1638,0.1741,0.1812,0.1909,0.1985,0.1987,0.1988,0.2072,0.1915,0.1906,0.1961,0.1952,0.1948,0.1936,0.2045,0.2044,0.2044,0.2043,0,0.1109,0.115,0.1184,0.1254,0.128,0.1316,0.141,0.1448,0.1572,0.1666,0.1717,0.1869,0.1972,0.2038,0.2117,0.2043,0.2051,0.2022,0.2089,0.208,0.1855,0.1846,0.1907,0.1904,0.1901,0.1899,0.1897,0,0.1089,0.1105,0.1176,0.1189,0.1222,0.1285,0.1316,0.1432,0.1476,0.1678,0.1712,0.1882,0.1961,0.1997,0.2067,0.2073,0.2037,0.201,0.1909,0.186,0.1846,0.184,0.1835,0.1893,0.1892,0.1892,0.1891,0,0.1044,0.1081,0.1103,0.113,0.1163,0.1185,0.125,0.128,0.1419,0.1563,0.1674,0.1748,0.1867,0.1932,0.197,0.1959,0.2012,0.1981,0.1985,0.189,0.1844,0.1831,0.1829,0.1882,0.1883,0.1884,0.1885,0,0.1009,0.1008,0.1036,0.1046,0.1073,0.1057,0.1112,0.1172,0.1244,0.1472,0.1512,0.1699,0.1856,0.1875,0.1906,0.1904,0.1847,0.1743,0.1757,0.1768,0.1694,0.1614,0.1585,0,0,0,0,0,0.0961,0.0938,0.0941,0.0929,0.0947,0.0959,0.1042,0.1104,0.1264,0.1298,0.1401,0.1507,0.1601,0.1701,0.1668,0.1811,0.183,0.1759,0.1711,0.1832,0.1842,0.1768,0,0,0,0,0,0,0.0922,0.0923,0.0906,0.082,0.079,0.0791,0.0835,0.0944,0.0977,0.117,0.1241,0.139,0.1512,0.1608,0.1635,0.1657,0.1586,0.1874,0.1869,0.1826,0.1836,0.1844,0.1771,0,0,0,0,0]},{"header":{"parameterUnit":"m.s-1","parameterCategory":2,"la1":30.2991,"la2":30.254,"lo1":-89.0895,"lo2":-89.0444,"dy":0.0017,"dx":0.0017,"nx":28,"ny":28,"refTime":"2024-04-11T09:00:00:Z","depth":"4","parameterNumber":3,"parameterNumberName":"V-component_of_CURRENTS"},"data":[0,0,0,0,0,0,0,0,0,0,0,0,0,0,0,0,0,0,0,0,0,0,0,0,0,0,0,0,0,0,0,0,0,0,0,0,0,0,0,0,0,0,0,0,0,0,0,0,0,0,0,0,0,0,0,0,0,0,0.0374,0.0374,0,0.0368,0.0368,0.0368,0.0356,0.0356,0.0355,0.0355,0.0331,0.0331,0.033,0,0,0,0,0,0,0,0,0,0,0,0,0,0.0348,0.0349,0.0374,0.0374,0.0374,0.0368,0.0368,0.0368,0.0356,0.0356,0.0355,0.0355,0.0331,0.0331,0.033,0,0,0,0,0,0,0,0,0,0,0,0,0,0.0352,0.0349,0.0374,0.0367,0.0367,0.0368,0.0368,0.0368,0.0356,0.0356,0.0355,0.0355,0.0332,0.0331,0.033,0.0333,0,0,0.0328,0.0328,0,0,0,0,0,0,0,0,0.0352,0.0353,0.0368,0.0368,0.0367,0.0362,0.035,0.0355,0.0356,0.036,0.0355,0.0355,0.034,0.0339,0.0339,0.0331,0.033,0.0328,0.0328,0.0328,0.0327,0,0,0,0,0,0,0,0.0352,0.0353,0.0371,0.0368,0.0367,0.0355,0.0356,0.0351,0.0351,0.0359,0.0359,0.0358,0.034,0.0339,0.0338,0.033,0.0328,0.0328,0.0327,0.0327,0.033,0.0331,0,0,0,0,0,0,0.0355,0.0353,0.0371,0.0371,0.0359,0.0356,0.0357,0.0364,0.0352,0.035,0.0359,0.0358,0.034,0.0339,0.0337,0.0354,0.0328,0.0327,0.0327,0.033,0.033,0.0331,0,0,0,0,0,0,0.0354,0.0357,0.0371,0.0361,0.0362,0.0357,0.0365,0.0364,0.0368,0.0352,0.0349,0.0364,0.034,0.0338,0.0341,0.0352,0.0327,0.0326,0.0329,0.033,0.0331,0.0379,0,0,0,0,0,0,0.0354,0.0357,0.0365,0.0362,0.0363,0.0379,0.0366,0.0364,0.0368,0.0367,0.0356,0.0353,0.034,0.0342,0.0341,0.0351,0.0326,0.0329,0.033,0.033,0.0377,0.0381,0.0385,0,0,0,0,0,0.0353,0.0365,0.0366,0.0368,0.0374,0.0379,0.0379,0.0373,0.0369,0.0375,0.0369,0.0353,0.0346,0.0342,0.034,0.0351,0.0328,0.0329,0.033,0.0375,0.038,0.0385,0,0,0,0,0,0,0.0357,0.0365,0.0365,0.038,0.0382,0.0378,0.0382,0.0379,0.0379,0.0379,0.0362,0.036,0.0365,0.0352,0.0348,0.0354,0.0334,0.0334,0.0368,0.0373,0.0377,0.0385,0.0325,0,0,0,0,0,0.0362,0.0376,0.0378,0.039,0.0392,0.0389,0.0391,0.0389,0.0387,0.0387,0.038,0.0371,0.0367,0.0366,0.0359,0.0365,0.0342,0.0369,0.0373,0.0377,0.0382,0.0359,0.0362,0.0335,0.0335,0.0334,0,0,0.0366,0.0374,0.038,0.0392,0.0393,0.0405,0.039,0.0397,0.041,0.0385,0.0399,0.0386,0.0372,0.0379,0.038,0.037,0.0371,0.0378,0.0382,0.0384,0.0361,0.0363,0.0366,0.0335,0.0335,0.0335,0,0,0.038,0.0388,0.0403,0.041,0.0417,0.0418,0.0424,0.0425,0.0428,0.0439,0.0424,0.042,0.0416,0.0408,0.0404,0.0427,0.0394,0.0423,0.0452,0.0431,0.0433,0.0434,0.0404,0.0402,0.0426,0.0426,0.0426,0,0.0383,0.0407,0.0407,0.0423,0.0435,0.0428,0.0447,0.0451,0.0454,0.0462,0.045,0.0446,0.0431,0.044,0.0446,0.0437,0.0415,0.0436,0.0436,0.0437,0.0438,0.0406,0.0404,0.0428,0.0428,0.0428,0.0427,0,0.0407,0.0429,0.0438,0.0461,0.0472,0.0488,0.0494,0.0505,0.0507,0.0509,0.0518,0.0498,0.0495,0.0489,0.0474,0.0477,0.0456,0.0443,0.0424,0.0444,0.0409,0.0405,0.0432,0.0431,0.043,0.0429,0,0,0.041,0.0448,0.0453,0.0477,0.0496,0.0511,0.0533,0.0555,0.0577,0.0569,0.0592,0.0576,0.056,0.0554,0.0532,0.0514,0.0495,0.0484,0.0482,0.0456,0.044,0.0413,0.0406,0.0482,0.0482,0.0482,0.0411,0,0.043,0.0475,0.0488,0.0534,0.0558,0.0567,0.0594,0.0611,0.062,0.0638,0.0616,0.0627,0.0587,0.059,0.0563,0.0518,0.0489,0.0515,0.0423,0.0421,0.0396,0.0403,0.0481,0.0409,0.0408,0.0407,0.0407,0,0.045,0.0482,0.053,0.0585,0.0596,0.0624,0.0671,0.0694,0.0712,0.0717,0.0713,0.0694,0.0673,0.0635,0.0557,0.0575,0.0509,0.0467,0.0462,0.042,0.0388,0.0386,0.04,0.0401,0.0401,0.0402,0.0402,0,0.0459,0.0514,0.0559,0.0576,0.063,0.066,0.0691,0.072,0.0756,0.0771,0.0793,0.0752,0.0747,0.0663,0.0566,0.0562,0.0472,0.0454,0.0364,0.0361,0.0385,0.0384,0.039,0.039,0.039,0.039,0.0391,0,0.0478,0.0516,0.0572,0.0599,0.0665,0.0689,0.0759,0.078,0.0821,0.0873,0.0837,0.0858,0.0754,0.0691,0.0585,0.0465,0.048,0.0369,0.0344,0.0405,0.0408,0.0382,0.0382,0.0388,0.0388,0.0389,0.0389,0,0.0482,0.0516,0.0576,0.0644,0.0674,0.0721,0.0814,0.0865,0.0893,0.0958,0.0968,0.094,0.086,0.0739,0.0605,0.0501,0.0383,0.0331,0.0404,0.0384,0.0278,0.0282,0.0228,0.0226,0.0225,0.0224,0.0223,0,0.0486,0.0517,0.061,0.0657,0.0695,0.0774,0.0839,0.0897,0.0955,0.101,0.1044,0.0993,0.0953,0.0751,0.0606,0.0395,0.0359,0.0282,0.0279,0.0283,0.0263,0.0268,0.0273,0.0221,0.0221,0.022,0.022,0,0.0496,0.0531,0.0585,0.0684,0.0763,0.0859,0.0952,0.0998,0.1071,0.1092,0.1114,0.102,0.0927,0.0761,0.0593,0.0441,0.0326,0.0268,0.027,0.0266,0.0274,0.0257,0.0263,0.0216,0.0216,0.0217,0.0217,0,0.0503,0.0544,0.0621,0.0711,0.0813,0.0924,0.0973,0.1051,0.111,0.116,0.1162,0.1068,0.1012,0.0784,0.0633,0.0477,0.043,0.0362,0.0358,0.036,0.0412,0.0443,0.0417,0,0,0,0,0,0.0506,0.0562,0.0645,0.0759,0.0863,0.0936,0.1044,0.1087,0.115,0.1173,0.1171,0.1086,0.0881,0.0798,0.0639,0.0588,0.0387,0.0391,0.0302,0.0192,0.0197,0.0232,0,0,0,0,0,0,0.0513,0.0588,0.0642,0.0784,0.0872,0.1005,0.1083,0.1129,0.114,0.1168,0.1068,0.1023,0.0827,0.0978,0.0632,0.0586,0.0499,0.03,0.0295,0.0189,0.0193,0.0197,0.0235,0,0,0,0,0]}]]